When you browse on this site, cookies collect data to enhance your experience and personalize the content and advertising you see.
Visit our Privacy Policy to learn more. By continuing to use the site, you agree to this use of cookies and data.
  • In Österreich
  • Länderverzeichnis
  • Für 7 Tage
  • Wassertemperatur
  • Satellitenkarten
  • Wetterkarte
  • News
  • Widgets
  • user-avatar
    Anmelden

    Stündliche Wetter Sapporo

    Heute, 21 Februar, Donnerstag

    Zeit Temperatur Niederschläge Wind Luftdruck Luftfeuchtigkeit
    00:00 -2°C° 0 mm 0 m/S 757 mmHg 91%
    01:00 -2°C° 0.2 mm 0 m/S 757 mmHg 91%
    02:00 -2°C° 0.2 mm 0 m/S 757 mmHg 92%
    03:00 -1°C° 0 mm 0 m/S 757 mmHg 93%
    04:00 0°C° 0.2 mm 1 m/S 758 mmHg 93%
    05:00 -1°C° 0.2 mm 1 m/S 758 mmHg 92%
    06:00 -1°C° 0.2 mm 1 m/S 758 mmHg 92%
    07:00 -2°C° 0 mm 2 m/S 758 mmHg 90%
    08:00 -1°C° 0 mm 2 m/S 758 mmHg 88%
    09:00 +1°C° 0 mm 2 m/S 758 mmHg 82%
    10:00 +1°C° 0 mm 2 m/S 758 mmHg 79%
    11:00 +2°C° 0 mm 2 m/S 758 mmHg 76%
    12:00 +2°C° 0 mm 2 m/S 758 mmHg 73%
    13:00 +2°C° 0 mm 2 m/S 758 mmHg 72%
    14:00 +2°C° 0 mm 2 m/S 758 mmHg 71%
    15:00 +2°C° 0 mm 2 m/S 758 mmHg 69%
    16:00 -1°C° 0 mm 2 m/S 758 mmHg 73%
    17:00 -2°C° 0 mm 2 m/S 758 mmHg 77%
    18:00 -3°C° 0 mm 2 m/S 759 mmHg 80%
    19:00 -4°C° 0 mm 2 m/S 759 mmHg 81%
    20:00 -4°C° 0 mm 2 m/S 759 mmHg 81%
    21:00 -4°C° 0 mm 2 m/S 759 mmHg 82%
    22:00 -4°C° 0 mm 2 m/S 759 mmHg 82%
    23:00 -4°C° 0 mm 2 m/S 759 mmHg 83%

    Morgen, 22 Februar, Freitag

    Zeit Temperatur Niederschläge Wind Luftdruck Luftfeuchtigkeit
    00:00 -4°C° 0 mm 2 m/S 759 mmHg 83%
    01:00 -5°C° 0 mm 2 m/S 759 mmHg 84%
    02:00 -5°C° 0 mm 2 m/S 759 mmHg 84%
    03:00 -5°C° 0 mm 2 m/S 759 mmHg 85%
    04:00 -5°C° 0 mm 2 m/S 758 mmHg 85%
    05:00 -5°C° 0 mm 2 m/S 758 mmHg 86%
    06:00 -5°C° 0 mm 2 m/S 758 mmHg 87%
    07:00 -3°C° 0 mm 2 m/S 758 mmHg 84%
    08:00 -2°C° 0 mm 2 m/S 758 mmHg 80%
    09:00 -1°C° 0 mm 2 m/S 758 mmHg 77%
    10:00 +1°C° 0 mm 2 m/S 758 mmHg 73%
    11:00 +2°C° 0 mm 2 m/S 758 mmHg 69%
    12:00 +2°C° 0 mm 3 m/S 757 mmHg 64%
    13:00 +2°C° 0 mm 3 m/S 757 mmHg 63%
    14:00 +3°C° 0 mm 3 m/S 757 mmHg 62%
    15:00 +3°C° 0 mm 3 m/S 756 mmHg 60%
    16:00 +1°C° 0 mm 3 m/S 756 mmHg 66%
    17:00 0°C° 0 mm 3 m/S 756 mmHg 71%
    18:00 -2°C° 0 mm 3 m/S 757 mmHg 77%
    19:00 -2°C° 0 mm 3 m/S 757 mmHg 78%
    20:00 -2°C° 0 mm 3 m/S 757 mmHg 80%
    21:00 -2°C° 0 mm 3 m/S 757 mmHg 81%
    22:00 -4°C° 0 mm 3 m/S 757 mmHg 79%
    23:00 -4°C° 0 mm 3 m/S 757 mmHg 78%

    übermorgen, 23 Februar, Samstag

    Zeit Temperatur Niederschläge Wind Luftdruck Luftfeuchtigkeit
    00:00 -4°C° 0 mm 3 m/S 757 mmHg 76%
    01:00 -4°C° 0 mm 3 m/S 757 mmHg 75%
    02:00 -4°C° 0 mm 3 m/S 757 mmHg 73%
    03:00 -4°C° 0 mm 3 m/S 757 mmHg 72%
    04:00 -4°C° 0 mm 3 m/S 757 mmHg 72%
    05:00 -4°C° 0 mm 3 m/S 757 mmHg 73%
    06:00 -5°C° 0 mm 3 m/S 757 mmHg 73%
    07:00 -4°C° 0.1 mm 3 m/S 758 mmHg 71%
    08:00 -3°C° 0.1 mm 4 m/S 758 mmHg 69%
    09:00 -3°C° 0.1 mm 4 m/S 758 mmHg 67%
    10:00 -4°C° 0.1 mm 5 m/S 758 mmHg 65%
    11:00 -2°C° 0.1 mm 5 m/S 758 mmHg 63%
    12:00 -2°C° 0.1 mm 5 m/S 758 mmHg 61%
    13:00 -2°C° 0.1 mm 5 m/S 758 mmHg 61%
    14:00 -4°C° 0.1 mm 5 m/S 758 mmHg 62%
    15:00 -4°C° 0.1 mm 5 m/S 758 mmHg 63%
    16:00 -4°C° 0 mm 4 m/S 759 mmHg 66%
    17:00 -4°C° 0 mm 4 m/S 759 mmHg 69%
    18:00 -5°C° 0 mm 3 m/S 760 mmHg 73%
    19:00 -5°C° 0 mm 3 m/S 761 mmHg 73%
    20:00 -5°C° 0 mm 2 m/S 761 mmHg 74%
    21:00 -5°C° 0 mm 2 m/S 762 mmHg 74%
    22:00 -5°C° 0 mm 2 m/S 762 mmHg 74%
    23:00 -5°C° 0 mm 2 m/S 762 mmHg 75%

    24 Februar, Sonntag

    Zeit Temperatur Niederschläge Wind Luftdruck Luftfeuchtigkeit
    00:00 -6°C° 0 mm 2 m/S 762 mmHg 75%
    01:00 -6°C° 0 mm 2 m/S 762 mmHg 76%
    02:00 -6°C° 0 mm 2 m/S 762 mmHg 76%
    03:00 -6°C° 0 mm 2 m/S 761 mmHg 76%
    04:00 -6°C° 0 mm 2 m/S 761 mmHg 76%
    05:00 -6°C° 0 mm 2 m/S 761 mmHg 76%
    06:00 -6°C° 0 mm 2 m/S 761 mmHg 76%
    07:00 -6°C° 0 mm 3 m/S 761 mmHg 73%
    08:00 -5°C° 0 mm 3 m/S 761 mmHg 70%
    09:00 -2°C° 0 mm 3 m/S 761 mmHg 67%
    10:00 -1°C° 0 mm 3 m/S 760 mmHg 64%
    11:00 +1°C° 0 mm 3 m/S 759 mmHg 61%
    12:00 +2°C° 0 mm 3 m/S 759 mmHg 57%
    13:00 +2°C° 0 mm 3 m/S 758 mmHg 58%
    14:00 +3°C° 0 mm 4 m/S 758 mmHg 59%
    15:00 +3°C° 0 mm 4 m/S 757 mmHg 60%
    16:00 +1°C° 0 mm 4 m/S 757 mmHg 65%
    17:00 +1°C° 0 mm 3 m/S 757 mmHg 70%
    18:00 -1°C° 0 mm 3 m/S 757 mmHg 75%
    19:00 0°C° 0 mm 3 m/S 757 mmHg 76%
    20:00 0°C° 0 mm 3 m/S 757 mmHg 77%
    21:00 0°C° 0 mm 3 m/S 757 mmHg 79%
    22:00 +1°C° 0.1 mm 3 m/S 757 mmHg 80%
    23:00 0°C° 0.1 mm 4 m/S 757 mmHg 81%

    25 Februar, Montag

    Zeit Temperatur Niederschläge Wind Luftdruck Luftfeuchtigkeit
    00:00 0°C° 0.1 mm 4 m/S 756 mmHg 82%
    01:00 +1°C° 0 mm 3 m/S 756 mmHg 84%
    02:00 +1°C° 0 mm 3 m/S 756 mmHg 85%
    03:00 0°C° 0 mm 3 m/S 756 mmHg 86%
    04:00 +1°C° 0 mm 2 m/S 756 mmHg 86%
    05:00 +1°C° 0 mm 2 m/S 756 mmHg 85%
    06:00 -1°C° 0 mm 2 m/S 756 mmHg 85%
    07:00 +1°C° 0 mm 2 m/S 757 mmHg 78%
    08:00 +2°C° 0 mm 2 m/S 757 mmHg 71%
    09:00 +2°C° 0 mm 3 m/S 757 mmHg 64%
    10:00 +2°C° 0 mm 3 m/S 757 mmHg 61%
    11:00 +3°C° 0 mm 4 m/S 757 mmHg 57%
    12:00 +2°C° 0 mm 5 m/S 757 mmHg 54%
    13:00 +2°C° 0 mm 5 m/S 758 mmHg 55%
    14:00 +1°C° 0 mm 5 m/S 758 mmHg 56%
    15:00 +1°C° 0 mm 5 m/S 758 mmHg 56%
    16:00 -1°C° 0 mm 4 m/S 758 mmHg 61%
    17:00 -2°C° 0 mm 4 m/S 759 mmHg 66%
    18:00 -2°C° 0 mm 3 m/S 759 mmHg 71%
    19:00 -2°C° 0 mm 3 m/S 760 mmHg 70%
    20:00 -4°C° 0 mm 3 m/S 760 mmHg 69%
    21:00 -4°C° 0 mm 3 m/S 760 mmHg 68%
    22:00 -4°C° 0 mm 3 m/S 761 mmHg 67%
    23:00 -3°C° 0 mm 2 m/S 761 mmHg 66%

    26 Februar, Dienstag

    Zeit Temperatur Niederschläge Wind Luftdruck Luftfeuchtigkeit
    00:00 -3°C° 0 mm 2 m/S 761 mmHg 65%
    01:00 -3°C° 0 mm 2 m/S 761 mmHg 65%
    02:00 -3°C° 0 mm 2 m/S 761 mmHg 65%
    03:00 -3°C° 0 mm 2 m/S 761 mmHg 66%
    04:00 -3°C° 0 mm 2 m/S 761 mmHg 66%
    05:00 -3°C° 0 mm 2 m/S 761 mmHg 66%
    06:00 -3°C° 0 mm 2 m/S 761 mmHg 66%
    07:00 -3°C° 0 mm 2 m/S 761 mmHg 63%
    08:00 -2°C° 0 mm 2 m/S 761 mmHg 60%
    09:00 -1°C° 0 mm 2 m/S 761 mmHg 57%
    10:00 -1°C° 0.1 mm 3 m/S 761 mmHg 55%
    11:00 -1°C° 0.1 mm 4 m/S 761 mmHg 54%
    12:00 -1°C° 0.1 mm 5 m/S 761 mmHg 52%
    13:00 -1°C° 0.1 mm 5 m/S 761 mmHg 53%
    14:00 -2°C° 0.1 mm 5 m/S 761 mmHg 55%
    15:00 -2°C° 0.1 mm 5 m/S 761 mmHg 56%
    16:00 -4°C° 0 mm 5 m/S 761 mmHg 59%
    17:00 -3°C° 0 mm 4 m/S 762 mmHg 61%
    18:00 -4°C° 0 mm 3 m/S 763 mmHg 64%
    19:00 -4°C° 0 mm 3 m/S 763 mmHg 64%
    20:00 -4°C° 0 mm 3 m/S 763 mmHg 64%
    21:00 -3°C° 0 mm 2 m/S 764 mmHg 64%
    22:00 -4°C° 0 mm 2 m/S 764 mmHg 64%
    23:00 -4°C° 0 mm 2 m/S 764 mmHg 64%
    Mehr zeigen